Regional Weather Roundup
Issued by NWS

Home | Current Version | Previous Version | Graphics & Text | Print | Product List | Glossary On
Versions: 1 2 3 4 5 6 7 8 9 10 11 12 13 14 15 16 17 18 19 20 21 22 23 24 25 26 27 28 29 30 31 32 33 34 35 36 37 38 39 40 41 42 43 44 45 46 47 48 49 50
000
ASUS43 KMPX 111601
RWRMN
WEATHER ROUNDUP FOR MINNESOTA
NATIONAL WEATHER SERVICE TWIN CITIES/CHANHASSEN MN
1000 AM CST THU FEB 11 2016


NOTE: "FAIR" INDICATES FEW OR NO CLOUDS BELOW 12,000 FEET WITH NO
SIGNIFICANT WEATHER AND/OR OBSTRUCTIONS TO VISIBILITY. N/A MEANS
CURRENT SKY AND/OR WEATHER CONDITIONS ARE NOT AVAILABLE.

MNZ060>063-068>070-111700-
   Twin Cities Metro

CITY           SKY/WX    TMP DP  RH WIND       PRES   REMARKS
TWIN CITIES    CLOUDY     8  -3  61 CALM      30.33S
ST PAUL        CLOUDY    10  -2  58 CALM      30.35S
CRYSTAL        CLOUDY     9  -3  58 CALM      30.31F
BLAINE         SUNNY      9  -2  61 CALM      30.32S
LAKEVILLE      CLOUDY     7  -2  66 CALM      30.31S
EDEN PRAIRIE   CLOUDY     8  -1  66 S3        30.31S
SOUTH ST PAUL  FLURRIES   9  -4  54 CALM      30.33S
LAKE ELMO      FAIR       5  -6  61 CALM      30.33S
$$
MNZ001>005-007-008-013>017-022>024-027-028-111700-
   Northwest Minnesota

CITY           SKY/WX    TMP DP  RH WIND       PRES   REMARKS
BEMIDJI        CLOUDY    -6 -11  80 CALM      30.21S
HALLOCK        CLOUDY     7   1  78 S7        30.25R WCI  -5
ROSEAU         CLOUDY     0  -6  78 SW3       30.23S
WARROAD        PTSUNNY    0  -8  71 SW9       30.22S WCI -16
THIEF RVR FALL CLOUDY     3   3 100 S3        30.24S
CROOKSTON      CLOUDY     7   1  78 SW5       30.27R WCI  -2
FOSSTON        CLOUDY     0  -8  71 S3        30.23R
DETROIT LAKES  CLOUDY     5   0  78 SE6       30.22S WCI  -6
MOORHEAD       CLOUDY     7   0  72 S3        30.26F
PARK RAPIDS    CLOUDY    -4  -8  83 CALM      30.22S
MAHNOMEN       CLOUDY     3  -4  73 S5        30.22F WCI  -6
$$
MNZ006-009>011-018-025>026-111700-
   North Central Minnesota

CITY           SKY/WX    TMP DP  RH WIND       PRES   REMARKS
BAUDETTE       CLOUDY     0  -9  65 SW5       30.20S WCI -10
FLAG ISLAND    CLOUDY     0  -9  65 CALM      30.20S
INTL FALLS     CLOUDY    -1  -9  68 W6        30.21S WCI -13
WASKISH        CLOUDY     0  -8  71 SW5       30.23R WCI -10
LONGVILLE      CLOUDY    -4  -9  77 CALM      30.24R
GRAND RAPIDS   CLOUDY    -4 -11  71 N3        30.22S
CRANE LAKE     CLOUDY    -2  -8  78 SW3       30.24S
ORR            CLOUDY    -2  -9  71 CALM      30.18S
COOK           CLOUDY    -6 -11  77 CALM      30.21F
WALKER         CLOUDY    -7 -12  78 CALM      30.23R
$$
MNZ012-019>021-037-111700-
   Northeast Minnesota

CITY           SKY/WX    TMP DP  RH WIND       PRES   REMARKS
DULUTH         PTSUNNY   -1  -9  68 NW6       30.22R WCI -13
ELY            CLOUDY    -6  -9  84 SW5       30.19S WCI -17
HIBBING        CLOUDY    -5  -9  83 SE5       30.21F WCI -16
EVELETH        CLOUDY     0  -6  78 W3        30.22S
DULUTH HARBOR  PTSUNNY    0  -8  71 SW7       30.32R WCI -13
TWO HARBORS    CLOUDY     5  -6  61 CALM      30.21S
GRAND MARAIS     N/A      6  -2  69 SW7       30.24S WCI  -6
G MARAIS ARPRT SUNNY      1  -9  60 NW9       30.09S WCI -14
$$
MNZ029>031-032-039>041-046>048-054>057-064-111700-
   West Central Minnesota

CITY           SKY/WX    TMP DP  RH WIND       PRES   REMARKS
FERGUS FALLS   CLOUDY     9   3  78 S3        30.28S
WHEATON        FLURRIES  10   7  85 SE7       30.27F WCI   0
MORRIS         CLOUDY    10   7  85 SE6       30.25S WCI   1
ALEXANDRIA     CLOUDY     9  -1  64 S9        30.24R WCI  -4
ELBOW LAKE     CLOUDY     9   4  80 SE7       30.25S WCI  -3
WADENA         CLOUDY     3  -4  72 SE3       30.23S
GLENWOOD       CLOUDY     9   1  72 S5        30.25R WCI   0
APPLETON       CLOUDY     7   3  85 CALM      30.27F
BENSON         CLOUDY     9   7  92 CALM      30.27R
ORTONVILLE     CLOUDY     7   3  85 SE5       30.25F WCI  -2
MADISON        FLURRIES  12   9  85 S5        30.27S WCI   4
WILLMAR        CLOUDY    12   5  73 CALM      30.28R
$$
MNZ033>034-036-042>043-049>051-058-059-111700-
   Central Minnesota

CITY           SKY/WX    TMP DP  RH WIND       PRES   REMARKS
ST CLOUD       CLOUDY     5  -5  63 SE3       30.29S
SAUK CENTRE    CLOUDY     5  -3  71 SE3       30.26S
PAYNESVILLE    CLOUDY     8   0  70 S6        30.28S WCI  -2
AITKIN         CLOUDY     3  -9  55 S3        30.25S
PINE RIVER     CLOUDY    -4  -9  77 CALM      30.27S
BRAINERD       CLOUDY    -2  -7  79 CALM      30.26S
STAPLES        CLOUDY     1  -6  71 S3        30.24F
LONG PRAIRIE   CLOUDY     3  -6  66 SE5       30.26S WCI  -6
LITTLE FALLS   CLOUDY     3  -6  66 CALM      30.29S
LITCHFIELD     CLOUDY     9   1  72 SE5       30.29S WCI   0
BUFFALO        CLOUDY     7  -5  57 CALM      30.32S
MAPLE LAKE     CLOUDY     8  -2  63 SE3       30.31S
$$
MNZ037-044-045-052-053-111700-
   East Central Minnesota

CITY           SKY/WX    TMP DP  RH WIND       PRES   REMARKS
PRINCETON      CLOUDY     7  -6  56 CALM      30.30R
MORA           SUNNY      7  -6  56 CALM      30.31F
CAMBRIDGE      CLOUDY     7  -6  56 CALM      30.30R
RUSH CITY      SUNNY      4  -7  61 CALM      30.32S
MOOSE LAKE     CLOUDY     1  -9  60 CALM      30.26F
HINCKLEY       FAIR       3  -6  66 CALM      30.30S
CLOQUET        CLOUDY     0  -9  65 CALM      30.24S
MCGREGOR       CLOUDY     0  -6  78 CALM      30.27R
$$
MNZ071>073-080-081-089-090-097-098-111700-
   Southwest Minnesota

CITY           SKY/WX    TMP DP  RH WIND       PRES   REMARKS
MONTEVIDEO     FLURRIES   9   7  92 CALM      30.30R
GRANITE FALLS  CLOUDY    11   7  83 SE6       30.31R WCI   1
CANBY          CLOUDY    16   9  75 SE6       30.26F WCI   7
MARSHALL       CLOUDY    13   2  61 S7        30.27S WCI   3
REDWOOD FALLS  CLOUDY     8   4  83 S6        30.30R WCI  -2
OLIVIA         CLOUDY    16   9  73 S7        30.29R WCI   6
PIPESTONE      CLOUDY    16   1  53 S10       30.21S WCI   3
WINDOM         CLOUDY     7   3  85 CALM      30.26R
WORTHINGTON    CLOUDY    10   1  67 S8        30.26R WCI  -1
JACKSON        CLOUDY    10   1  67 S6        30.26S WCI   1
TRACY          CLOUDY    12   6  78 S5        30.26R WCI   4
SLAYTON        CLOUDY    11   6  78 S10       30.24R WCI  -2
$$
MNZ065>067-074>077-082>085-091>093-111700-
   South Central Minnesota

CITY           SKY/WX    TMP DP  RH WIND       PRES   REMARKS
MANKATO        CLOUDY     7   1  78 SE5       30.30F WCI  -2
NEW ULM        CLOUDY     7   1  78 CALM      30.30S
ST JAMES       CLOUDY     7   3  85 CALM      30.31R
FAIRMONT       CLOUDY     3   0  85 S5        30.29R WCI  -6
GLENCOE        CLOUDY    12   1  60 E5        30.29F WCI   4
FARIBAULT        N/A      5  -2  72 CALM      30.31R
OWATONNA       CLOUDY     7   0  72 SW3       30.30R
WASECA         CLOUDY     7   1  78 CALM      30.32S
ALBERT LEA     CLOUDY     9   0  66 CALM      30.29S
$$
MNZ078>079-086>088-094>096-111700-
   Southeast Minnesota

CITY           SKY/WX    TMP DP  RH WIND       PRES   REMARKS
ROCHESTER      CLOUDY     3  -2  79 SW3       30.29R
RED WING       CLOUDY     7  -6  56 CALM      30.33S
STANTON        CLOUDY     1  -4  77 CALM      30.31F
DODGE CENTER   CLOUDY    10   1  67 SW3       30.28R
WINONA         SUNNY     10   1  67 CALM      30.37S
AUSTIN         CLOUDY     3  -2  78 CALM      30.30R
PRESTON        CLOUDY     4  -5  65 W5        30.30R WCI  -6
$$
ABBREVIATIONS USED IN REMARKS
   TC - TEMPERATURES IN CELSIUS
  WCI - WIND CHILL INDEX
   HX - HEAT INDEX
  VSB - VISIBILITY
$$



USA.gov is the U.S. government's official web portal to all federal, state and local government web resources and services.